This demonstration page uses our WeatherBlox Daily Observations layout. Learn more.

Left ArrowRight Arrow

40.97296, -117.73568

Hourly Observations for August 11, 2015

Temp ( °F °C ) Dew Point ( °F °C ) Humidity (%) Winds ( mph kmh ) Pressure ( in mb ) Visibility ( mi km ) Precip ( " mm )
12:56 am 00:56 Clear 60 15.6 33 0.6 36 36 Calm 29.79 1009 10 16 0.00 0.00
1:56 am 01:56 Clear 52 11.1 32 0 47 47 Calm 29.81 1010 10 16 0.00 0.00
2:56 am 02:56 Clear 50 10 36 2.2 59 59 SSE 7 11 29.82 1010 10 16 0.00 0.00
3:56 am 03:56 Clear 50 10 35 1.7 57 57 Calm 29.83 1010 10 16 0.00 0.00
4:56 am 04:56 Clear 49 9.4 35 1.7 59 59 SE 6 9 29.84 1010 10 16 0.00 0.00
5:56 am 05:56 Clear 44 6.7 33 0.6 65 65 SSE 6 9 29.87 1012 10 16 0.00 0.00
6:56 am 06:56 Sunny 53 11.7 36 2.2 52 52 S 3 6 29.87 1012 10 16 0.00 0.00
7:56 am 07:56 Sunny 61 16.1 38 3.3 43 43 Calm 29.89 1012 10 16 0.00 0.00
8:56 am 08:56 Sunny 72 22.2 34 1.1 25 25 VRB 3 6 29.88 1012 10 16 0.00 0.00
10:56 am 10:56 Sunny 83 28.3 32 0 16 16 VRB 3 6 29.86 1011 10 16 0.00 0.00
11:56 am 11:56 Sunny 89 31.7 33 0.6 14 14 SE 10 17 29.83 1010 10 16 0.00 0.00
12:45 pm 12:45 Sunny 92 33.3 29 -1.7 10 10 SSE 16 26 29.59 1002 10 16 0.00 0.00
12:56 pm 12:56 Sunny 92 33.3 29 -1.7 10 10 SE 17 28 29.81 1010 10 16 0.00 0.00
3:56 pm 15:56 Sunny 94 34.4 26 -3.3 9 9 S 15 24 29.78 1008 10 16 0.00 0.00
4:56 pm 16:56 Sunny 93 33.9 25 -3.9 8 8 W 12 19 29.77 1008 10 16 0.00 0.00
5:56 pm 17:56 Sunny 91 32.8 24 -4.4 9 9 W 13 20 29.77 1008 10 16 0.00 0.00
6:56 pm 18:56 Sunny 90 32.2 24 -4.4 9 9 W 9 15 29.75 1007 10 16 0.00 0.00
7:56 pm 19:56 Clear 80 26.7 28 -2.2 15 15 W 6 9 29.76 1008 10 16 0.00 0.00
8:56 pm 20:56 Clear 71 21.7 28 -2.2 20 20 WSW 6 9 29.79 1009 10 16 0.00 0.00
9:56 pm 21:56 Clear 65 18.3 24 -4.4 21 21 W 7 11 29.81 1010 10 16 0.00 0.00
10:56 pm 22:56 Clear 64 17.8 27 -2.8 25 25 SSE 5 7 29.82 1010 10 16 0.00 0.00
11:56 pm 23:56 Clear 62 16.7 28 -2.2 28 28 S 6 9 29.83 1010 10 16 0.00 0.00

Powered by AerisWeather